SR5NLK-1 Weather Reports


time (UTC)temp
F
wind
direction
speed
knots
gust
knots
rain 1hr
in
rain 24hr
in
rain mn
in
humidity
%
barometer
mb
20260507175227 55 292 7.0 7.8 0.00 0.00 0.00 74 1043.7
20260507174727 55 315 7.0 7.8 0.00 0.00 0.00 74 1075.6
20260507174227 55 292 7.8 8.7 0.00 0.00 0.00 73 1024.0
20260507173727 55 315 7.8 10.4 0.00 0.00 0.00 73 1046.0
20260507173326 55 292 6.1 7.8 0.00 0.00 0.00 73 1065.8
20260507173227 55 0 5.2 7.8 0.00 0.00 0.00 73 1082.0
20260507172728 55 0 3.5 10.4 0.00 0.00 0.00 73 1072.1
20260507172227 55 337 4.3 7.0 0.00 0.00 0.00 73 1087.8
20260507171727 56 315 5.2 7.0 0.00 0.00 0.00 73 1091.0
20260507171227 56 315 4.3 12.2 0.00 0.00 0.00 72 1001.0
20260507170727 56 315 5.2 7.8 0.00 0.00 0.00 72 1059.5
20260507170227 57 0 7.8 10.4 0.00 0.00 0.00 72 1087.8
20260507170026 57 22 5.2 10.4 0.00 0.00 0.00 71 1078.4
20260507165727 57 315 1.7 10.4 0.00 0.00 0.00 71 1090.9
20260507165227 57 315 8.7 8.7 0.00 0.00 0.00 70 1090.9
20260507164728 57 337 7.0 8.7 0.00 0.00 0.00 70 962.4
20260507164227 58 292 5.2 7.8 0.00 0.00 0.00 69 1094.1
20260507163727 58 0 0.0 7.8 0.00 0.00 0.00 69 1046.0
20260507163227 58 337 2.6 5.2 0.00 0.00 0.00 70 1039.7
20260507162726 58 0 4.3 7.0 0.00 0.00 0.00 69 1072.1
20260507162227 58 292 7.0 8.7 0.00 0.00 0.00 69 1084.7
20260507161727 58 315 3.5 8.7 0.00 0.00 0.00 69 1068.9
20260507161227 58 22 5.2 9.6 0.00 0.00 0.00 69 1078.4
20260507160727 58 22 1.7 7.0 0.00 0.00 0.00 70 1081.5
20260507160227 58 337 2.6 7.8 0.00 0.00 0.00 70 1007.3
20260507155727 58 0 1.7 7.0 0.00 0.00 0.00 70 956.0
20260507155426 58 337 3.5 4.3 0.00 0.00 0.00 70 1030.2
20260507155228 58 315 3.5 5.2 0.00 0.00 0.00 70 1055.4
20260507154727 58 315 5.2 7.8 0.00 0.00 0.00 70 1046.0
20260507154227 58 292 1.7 9.6 0.00 0.00 0.00 69 1065.8
20260507153727 58 292 4.3 8.7 0.00 0.00 0.00 69 1004.1
20260507153227 59 0 5.2 7.0 0.00 0.00 0.00 69 994.7
20260507152728 59 292 4.3 5.2 0.00 0.00 0.00 68 1016.7
20260507152228 59 292 1.7 7.8 0.00 0.00 0.00 68 1049.1
20260507152126 60 337 6.1 7.8 0.00 0.00 0.00 68 1010.3
20260507151727 60 292 2.6 10.4 0.00 0.00 0.00 67 1001.0
20260507151227 60 292 6.1 7.0 0.00 0.00 0.00 67 977.4
20260507150727 60 292 6.1 7.8 0.00 0.00 0.00 68 997.5
20260507150227 60 315 4.3 6.1 0.00 0.00 0.00 68 1019.8
20260507145727 60 0 2.6 7.8 0.00 0.00 0.00 68 1084.7
20260507145227 60 22 1.7 9.6 0.00 0.00 0.00 68 964.2
20260507144826 60 247 3.5 9.6 0.00 0.00 0.00 68 943.1
20260507144728 60 270 6.1 7.8 0.00 0.00 0.00 68 900.4
20260507144227 60 292 2.6 6.1 0.00 0.00 0.00 68 1016.7
20260507143727 60 292 3.5 10.4 0.00 0.00 0.00 67 962.3
20260507143227 60 315 5.2 10.4 0.00 0.00 0.00 67 981.3
20260507142728 60 292 7.8 8.7 0.00 0.00 0.00 68 1094.1
20260507142236 60 292 3.5 8.7 0.00 0.00 0.00 68 1052.2
20260507142228 60 292 3.5 8.7 0.00 0.00 0.00 68 1052.2
20260507141728 60 315 3.5 11.3 0.00 0.00 0.00 68 1015.3
20260507141527 60 337 2.6 11.3 0.00 0.00 0.00 68 1007.3
20260507141228 60 292 5.2 8.7 0.00 0.00 0.00 68 968.3
20260507140728 60 292 4.3 10.4 0.00 0.00 0.00 68 976.1
20260507140228 60 292 7.8 13.0 0.00 0.00 0.00 67 972.4
20260507135728 61 292 6.1 12.2 0.00 0.00 0.00 67 965.2
20260507135228 61 315 5.2 9.6 0.00 0.00 0.00 67 982.8
20260507134728 61 337 3.5 8.7 0.00 0.00 0.00 68 965.3
20260507134227 61 315 7.0 9.6 0.00 0.00 0.00 68 952.9
20260507133728 61 292 8.7 9.6 0.00 0.00 0.00 68 1004.1
20260507133228 61 292 2.6 9.6 0.00 0.00 0.00 68 1010.4
20260507132728 61 292 4.3 11.3 0.00 0.00 0.00 69 968.6
20260507132228 60 292 8.7 8.7 0.00 0.00 0.00 70 977.8
20260507131728 60 292 2.6 9.6 0.00 0.00 0.00 70 1042.8
20260507131228 60 315 5.2 9.6 0.00 0.00 0.00 70 1016.4
20260507130927 60 292 9.6 10.4 0.00 0.00 0.00 71 1008.4
20260507130728 60 270 4.3 10.4 0.00 0.00 0.00 71 1067.8
20260507130228 60 315 4.3 9.6 0.00 0.00 0.00 72 1052.2
20260507125728 60 292 6.1 9.6 0.00 0.00 0.00 71 974.8
20260507125228 60 315 6.1 7.8 0.00 0.00 0.00 71 968.6
20260507124728 60 315 7.8 8.7 0.00 0.00 0.00 71 1039.7
20260507124228 60 292 7.0 10.4 0.00 0.00 0.00 73 996.9
20260507123728 59 270 3.5 9.6 0.00 0.00 0.00 73 966.1
20260507123627 59 270 2.6 9.6 0.00 0.00 0.00 73 962.3
20260507123228 59 270 3.5 11.3 0.00 0.00 0.00 73 888.0
20260507122728 59 270 8.7 9.6 0.00 0.00 0.00 73 976.0
20260507122228 60 292 6.1 11.3 0.00 0.00 0.00 73 971.8
20260507121728 59 247 9.6 10.4 0.00 0.00 0.00 73 1048.4
20260507121228 60 292 5.2 10.4 0.00 0.00 0.00 73 968.1
20260507120728 60 315 7.0 8.7 0.00 0.00 0.00 73 961.2
20260507120327 60 270 7.8 7.8 0.00 0.00 0.00 73 1052.2
20260507120228 60 247 2.6 7.8 0.00 0.00 0.00 73 1046.0
20260507115728 60 270 0.9 6.1 0.00 0.00 0.00 74 1016.6
20260507115228 60 270 2.6 7.0 0.00 0.00 0.00 73 1016.7
20260507114728 60 292 4.3 5.2 0.00 0.00 0.00 73 1042.8
20260507114228 60 270 3.5 4.3 0.00 0.00 0.00 73 1027.1
20260507113728 60 270 3.5 7.0 0.00 0.00 0.00 73 923.6
20260507113228 60 292 7.0 7.0 0.00 0.00 0.00 74 1046.0
20260507113027 60 0 3.5 5.2 0.00 0.00 0.00 74 1005.8
20260507112728 60 270 5.2 5.2 0.00 0.00 0.00 75 1019.7
20260507112228 60 292 1.7 4.3 0.00 0.00 0.00 77 979.2
20260507111728 58 337 1.7 7.0 0.00 0.00 0.00 78 1061.6
20260507111228 58 0 0.9 7.0 0.00 0.00 0.00 78 1004.1
20260507110728 58 315 3.5 7.0 0.00 0.00 0.00 78 1032.9
20260507110228 58 292 3.5 6.1 0.00 0.00 0.00 77 1094.1
20260507105727 58 292 3.5 7.0 0.00 0.00 0.00 77 1042.8
20260507105228 59 270 2.6 7.8 0.00 0.00 0.00 79 926.7
20260507104728 58 225 3.5 7.0 0.00 0.00 0.00 81 960.8
20260507104228 57 292 1.7 6.1 0.00 0.00 0.00 82 1049.1
20260507103728 56 292 3.5 7.0 0.00 0.00 0.00 82 1004.1
20260507103228 56 315 3.5 5.2 0.00 0.00 0.00 82 1062.7
20260507102728 56 270 1.7 3.5 0.00 0.00 0.00 82 1007.3
20260507102427 56 270 1.7 5.2 0.00 0.00 0.00 82 952.9
20260507102228 56 315 2.6 6.1 0.00 0.00 0.00 82 988.3
20260507101728 56 292 2.6 5.2 0.00 0.00 0.00 82 981.0
20260507101228 56 315 3.5 4.3 0.00 0.00 0.00 82 956.0
20260507100728 55 247 0.9 6.1 0.00 0.00 0.00 82 963.9
20260507100228 55 315 2.6 6.1 0.00 0.00 0.00 81 937.0
20260507095728 55 315 5.2 9.6 0.00 0.00 0.00 81 1026.0
20260507095228 56 337 7.0 9.6 0.00 0.00 0.00 80 1004.5
20260507095127 56 315 4.3 9.6 0.00 0.00 0.00 80 999.4
20260507095103 56 202 2.6 7.8 0.00 0.00 0.00 79 982.7
20260507094728 56 202 2.6 7.8 0.00 0.00 0.00 79 982.7
20260507094228 57 67 5.2 8.7 0.00 0.00 0.00 79 1042.3
20260507093728 57 270 1.7 8.7 0.00 0.00 0.00 78 1048.2
20260507093228 57 292 5.2 9.6 0.00 0.00 0.00 79 920.5
20260507092728 57 270 4.3 9.6 0.00 0.00 0.00 79 1038.3
20260507092228 57 315 3.5 9.6 0.00 0.00 0.00 79 1022.8
20260507091827 57 292 7.0 9.6 0.00 0.00 0.00 79 1094.0
20260507091728 57 292 9.6 9.6 0.00 0.00 0.00 79 970.1
20260507091228 57 247 4.3 7.0 0.00 0.00 0.00 80 1058.5
20260507090728 57 292 7.0 10.4 0.00 0.00 0.00 80 1037.0
20260507090228 57 0 2.6 9.6 0.00 0.00 0.00 79 953.7
20260507085728 58 292 7.0 8.7 0.00 0.00 0.00 79 987.3
20260507085228 58 292 3.5 7.8 0.00 0.00 0.00 80 997.8
20260507084728 58 270 2.6 9.6 0.00 0.00 0.00 81 1055.4
20260507084527 57 292 3.5 7.0 0.00 0.00 0.00 81 1039.7
20260507084228 57 202 1.7 5.2 0.00 0.00 0.00 81 1010.6
20260507083728 57 292 5.2 8.7 0.00 0.00 0.00 81 1045.9
20260507083228 57 292 8.7 8.7 0.00 0.00 0.00 81 1036.5
20260507082728 57 270 5.2 8.7 0.00 0.00 0.00 80 1024.5
20260507082228 58 292 7.0 7.0 0.00 0.00 0.00 79 997.9
20260507081728 58 315 4.3 7.8 0.00 0.00 0.00 79 1010.4
20260507081227 58 292 7.8 7.8 0.00 0.00 0.00 79 1016.5
20260507080728 59 292 3.5 6.1 0.00 0.00 0.00 78 965.7
20260507080228 59 270 4.3 7.0 0.00 0.00 0.00 78 997.8
20260507075728 59 315 7.0 7.0 0.00 0.00 0.00 78 1016.6
20260507075228 59 337 2.6 6.1 0.00 0.00 0.00 78 997.8
20260507074728 59 337 3.5 7.8 0.00 0.00 0.00 77 961.8
20260507074228 60 337 7.8 9.6 0.00 0.00 0.00 76 1007.3
20260507073927 60 315 5.2 8.7 0.00 0.00 0.00 76 1043.6
20260507073728 60 292 4.3 8.7 0.00 0.00 0.00 76 1055.4
20260507073353 60 292 2.6 8.7 0.00 0.00 0.00 76 1004.1
20260507073228 60 270 1.7 7.0 0.00 0.00 0.00 76 1061.6
20260507072728 60 292 2.6 8.7 0.00 0.00 0.00 76 1004.1
20260507072228 61 337 2.6 9.6 0.00 0.00 0.00 76 994.7
20260507071728 61 315 6.1 7.8 0.00 0.00 0.00 77 1016.3
20260507071228 61 315 7.8 8.7 0.00 0.00 0.00 77 1013.5
20260507070728 60 337 3.5 7.8 0.00 0.00 0.00 78 965.5
20260507070627 60 337 3.5 7.0 0.00 0.00 0.00 78 1013.3
20260507070228 60 292 6.1 7.0 0.00 0.00 0.00 79 1019.8
20260507065728 59 270 2.6 8.7 0.00 0.00 0.00 79 973.4
20260507065305 59 0 4.3 9.6 0.00 0.00 0.00 79 1049.1
20260507065228 59 0 4.3 9.6 0.00 0.00 0.00 79 1049.1
20260507064730 59 270 5.2 8.7 0.00 0.00 0.00 79 1046.0
20260507064228 59 292 7.8 10.4 0.00 0.00 0.00 80 1010.3
20260507063728 59 292 6.1 10.4 0.00 0.00 0.00 80 1058.5
20260507063327 59 292 8.7 10.4 0.00 0.00 0.00 79 1090.9
20260507063228 59 292 6.1 10.4 0.00 0.00 0.00 79 1001.0
20260507062729 60 292 7.8 10.4 0.00 0.00 0.00 78 1026.0
20260507062228 60 292 7.0 9.6 0.00 0.00 0.00 76 1022.8
20260507061728 60 292 4.3 7.0 0.00 0.00 0.00 76 1097.2
20260507061229 61 247 3.5 7.0 0.00 0.00 0.00 76 971.7
20260507060738 61 292 3.5 5.2 0.00 0.00 0.00 75 961.4
20260507060728 61 292 3.5 5.2 0.00 0.00 0.00 75 961.4
20260507060228 61 247 1.7 7.8 0.00 0.00 0.00 74 974.8
20260507060027 62 270 3.5 7.8 0.00 0.00 0.00 74 1013.5
20260507055729 62 270 3.5 7.0 0.00 0.00 0.00 73 1067.9
20260507055229 63 292 3.5 3.5 0.00 0.00 0.00 72 1002.7
20260507054728 64 292 3.5 6.1 0.00 0.00 0.00 71 1052.2
20260507054228 64 270 1.7 6.1 0.00 0.00 0.00 72 1046.0
20260507053728 64 270 3.5 3.5 0.00 0.00 0.00 72 1015.4
20260507053228 64 225 1.7 3.5 0.00 0.00 0.00 71 965.4
20260507052727 64 270 0.0 1.7 0.00 0.00 0.00 71 981.0
20260507052228 64 270 1.7 3.5 0.00 0.00 0.00 70 1039.7
20260507051728 64 292 2.6 2.6 0.00 0.00 0.00 69 1055.4
20260507051228 66 337 1.7 4.3 0.00 0.00 0.00 68 962.3
20260507050728 66 0 0.9 1.7 0.00 0.00 0.00 68 1010.4
20260507050228 67 270 0.9 6.1 0.00 0.00 0.00 68 1052.2
20260507045728 68 292 3.5 5.2 0.00 0.00 0.00 68 1046.0
20260507045428 68 292 3.5 5.2 0.00 0.00 0.00 69 1022.9
20260507045228 67 292 4.3 5.2 0.00 0.00 0.00 73 1055.4
20260507044729 65 270 2.6 5.2 0.00 0.00 0.00 78 1047.7
20260507044229 63 270 4.3 4.3 0.00 0.00 0.00 80 1001.0
20260507043729 62 292 3.5 3.5 0.00 0.00 0.00 82 1012.1
20260507043229 61 292 3.5 3.5 0.00 0.00 0.00 82 1036.5
20260507042729 60 292 1.7 2.6 0.00 0.00 0.00 83 1058.5
20260507042229 60 270 0.9 2.6 0.00 0.00 0.00 83 1046.0
20260507042128 60 292 0.9 2.6 0.00 0.00 0.00 83 962.3
20260507041729 60 270 0.9 1.7 0.00 0.00 0.00 83 1055.4
20260507041229 60 270 0.0 0.9 0.00 0.00 0.00 84 968.5
20260507040729 59 270 0.0 2.6 0.00 0.00 0.00 84 968.5
20260507040229 59 225 0.0 1.7 0.00 0.00 0.00 83 922.2
20260507035729 58 157 0.0 0.9 0.00 0.00 0.00 83 997.9
20260507035300 58 157 0.0 0.9 0.00 0.00 0.00 83 968.6
20260507035229 58 157 0.0 0.9 0.00 0.00 0.00 83 968.6
20260507034828 58 135 0.0 0.0 0.00 0.00 0.00 83 1061.6
20260507034729 58 135 0.0 0.0 0.00 0.00 0.00 83 971.7
20260507034229 58 225 0.0 0.0 0.00 0.00 0.00 84 982.8
20260507033729 58 112 0.0 0.0 0.00 0.00 0.00 84 1055.4
20260507033229 57 180 0.0 1.7 0.00 0.00 0.00 84 1001.0
20260507032734 52 157 0.0 1.7 0.00 0.00 0.00 83 1055.4
20260507032729 57 157 0.0 1.7 0.00 0.00 0.00 83 1055.4
20260507032301 57 180 0.9 2.6 0.00 0.00 0.00 83 1060.2
20260507032229 57 180 0.9 2.6 0.00 0.00 0.00 83 1060.2
20260507031729 57 270 1.7 3.5 0.00 0.00 0.00 83 1060.3
20260507031528 57 247 0.9 1.7 0.00 0.00 0.00 83 1012.2
20260507031229 57 225 1.7 1.7 0.00 0.00 0.00 83 1049.1
20260507030729 57 202 1.7 1.7 0.00 0.00 0.00 83 976.5
20260507030229 57 202 1.7 2.6 0.00 0.00 0.00 83 1016.5
20260507025729 57 247 0.0 2.6 0.00 0.00 0.00 83 959.2
20260507025229 57 270 0.9 2.6 0.00 0.00 0.00 83 1046.0
20260507024729 57 292 0.0 1.7 0.00 0.00 0.00 83 977.9
20260507024242 57 225 0.9 1.7 0.00 0.00 0.00 83 1013.5
20260507024228 57 225 0.9 1.7 0.00 0.00 0.00 83 1013.5
20260507023729 57 315 0.0 1.7 0.00 0.00 0.00 83 1081.5
20260507023229 57 0 0.9 1.7 0.00 0.00 0.00 83 1007.2
20260507022729 57 315 0.9 2.6 0.00 0.00 0.00 83 1010.4
20260507022229 57 270 0.0 2.6 0.00 0.00 0.00 82 1010.4
20260507021729 58 292 0.9 3.5 0.00 0.00 0.00 82 968.5
20260507021229 58 292 1.7 3.5 0.00 0.00 0.00 82 965.4
20260507020928 58 292 1.7 3.5 0.00 0.00 0.00 82 1010.4
20260507020729 58 292 1.7 3.5 0.00 0.00 0.00 81 974.8
20260507020229 58 315 1.7 2.6 0.00 0.00 0.00 81 1049.1
20260507015729 58 292 0.0 2.6 0.00 0.00 0.00 81 1061.5
20260507015445 58 0 2.6 2.6 0.00 0.00 0.00 81 1039.6
20260507015229 58 315 0.9 3.5 0.00 0.00 0.00 81 1013.5
20260507014729 58 337 0.9 3.5 0.00 0.00 0.00 81 965.4
20260507014229 58 0 2.6 2.6 0.00 0.00 0.00 81 1039.6
20260507013729 58 0 1.7 2.6 0.00 0.00 0.00 80 1097.2
20260507013628 58 315 0.9 2.6 0.00 0.00 0.00 80 1049.1
20260507013229 58 337 0.0 2.6 0.00 0.00 0.00 80 1081.5
20260507012729 58 315 1.7 4.3 0.00 0.00 0.00 80 1013.5
20260507012229 58 292 2.6 5.2 0.00 0.00 0.00 80 1004.1
20260507011729 58 315 2.6 5.2 0.00 0.00 0.00 80 1054.0
20260507011229 58 315 2.6 3.5 0.00 0.00 0.00 80 1013.5
20260507010729 58 270 2.6 6.1 0.00 0.00 0.00 79 1068.9
20260507010328 58 292 3.5 3.5 0.00 0.00 0.00 79 988.3
20260507010229 58 292 1.7 3.5 0.00 0.00 0.00 79 1076.9
20260507005729 58 22 1.7 5.2 0.00 0.00 0.00 79 965.4
20260507005229 59 315 5.2 5.2 0.00 0.00 0.00 78 971.6
20260507004729 59 270 2.6 7.8 0.00 0.00 0.00 78 1045.9
20260507004229 59 292 7.8 10.4 0.00 0.00 0.00 78 1058.5
20260507003729 59 22 2.6 9.6 0.00 0.00 0.00 78 1010.4
20260507003229 59 315 4.3 7.8 0.00 0.00 0.00 77 888.0
20260507003028 59 292 3.5 7.8 0.00 0.00 0.00 77 962.3
20260507002729 60 315 2.6 10.4 0.00 0.00 0.00 76 1058.5
20260507002229 60 315 7.0 12.2 0.00 0.00 0.00 75 990.1
20260507001729 60 292 2.6 8.7 0.00 0.00 0.00 74 1001.0
20260507001229 61 292 2.6 13.9 0.00 0.00 0.00 72 1042.8
20260507000730 62 315 7.0 10.4 0.00 0.00 0.00 70 1055.3
20260507000229 63 270 2.6 17.4 0.00 0.00 0.00 69 926.7
20260506235728 63 270 10.4 15.6 0.00 0.00 0.00 68 968.6
20260506235229 63 270 2.6 7.0 0.00 0.00 0.00 67 1046.0
20260506234729 62 270 7.0 31.3 0.00 0.00 0.00 67 1024.2
20260506234229 62 270 20.9 20.9 0.00 0.00 0.00 67 1022.8
20260506233729 62 270 6.1 13.9 0.00 0.00 0.00 66 1001.0
20260506233229 62 180 0.9 0.9 0.00 0.00 0.00 66 1052.2
20260506232729 62 157 0.0 0.0 0.00 0.00 0.00 66 1007.3
20260506232428 62 112 0.0 0.9 0.00 0.00 0.00 66 994.7
20260506232229 62 112 0.0 1.7 0.00 0.00 0.00 66 977.9
20260506231729 62 112 0.0 1.7 0.00 0.00 0.00 66 1001.0
20260506231229 62 112 0.9 1.7 0.00 0.00 0.00 66 1039.7
20260506230729 62 112 0.9 1.7 0.00 0.00 0.00 66 1052.2
20260506230229 62 135 0.9 0.9 0.00 0.00 0.00 66 1090.9
20260506225729 62 112 1.7 2.6 0.00 0.00 0.00 66 1045.9
20260506225229 62 135 0.0 3.5 0.00 0.00 0.00 66 952.9
20260506225128 62 135 0.0 3.5 0.00 0.00 0.00 66 1007.3
20260506224729 62 112 0.0 3.5 0.00 0.00 0.00 66 1050.8
20260506224229 62 112 1.7 3.5 0.00 0.00 0.00 66 959.2
20260506223729 62 112 1.7 3.5 0.00 0.00 0.00 66 1010.3
20260506223229 62 135 1.7 3.5 0.00 0.00 0.00 66 1049.1
20260506222730 62 135 1.7 2.6 0.00 0.00 0.00 66 1019.8
20260506222229 62 112 0.9 3.5 0.00 0.00 0.00 66 1097.2
20260506221828 62 135 2.6 2.6 0.00 0.00 0.00 66 1019.9
20260506221729 62 112 2.6 2.6 0.00 0.00 0.00 66 1049.1
20260506221229 61 135 1.7 1.7 0.00 0.00 0.00 66 1045.9
20260506220729 61 112 0.0 1.7 0.00 0.00 0.00 66 1052.2
20260506220229 61 157 0.0 3.5 0.00 0.00 0.00 66 1007.3
20260506215729 61 112 1.7 2.6 0.00 0.00 0.00 66 1046.0
20260506215229 61 112 0.9 0.9 0.00 0.00 0.00 66 1013.5
20260506214729 61 112 0.0 0.0 0.00 0.00 0.00 66 1039.7
20260506214528 61 135 0.0 0.0 0.00 0.00 0.00 65 1058.5
20260506214229 61 135 0.0 0.9 0.00 0.00 0.00 65 984.1
20260506213729 61 112 0.0 0.0 0.00 0.00 0.00 65 1013.5
20260506213229 61 45 0.0 0.0 0.00 0.00 0.00 64 962.3
20260506212729 61 45 0.0 0.0 0.00 0.00 0.00 64 1016.6
20260506212229 62 112 0.0 0.0 0.00 0.00 0.00 64 1100.3
20260506211729 62 112 0.0 0.9 0.00 0.00 0.00 63 1052.1
20260506211228 62 135 0.0 0.0 0.00 0.00 0.00 63 1016.6
20260506210729 62 112 0.0 1.7 0.00 0.00 0.00 63 1070.9
20260506210229 62 90 0.0 1.7 0.00 0.00 0.00 63 967.4
20260506205729 62 112 1.7 2.6 0.00 0.00 0.00 63 1055.4
20260506205229 63 135 2.6 2.6 0.00 0.00 0.00 62 1094.0
20260506205214 63 112 0.0 1.7 0.00 0.00 0.00 61 1045.9
20260506204729 63 112 0.9 2.6 0.00 0.00 0.00 62 971.7
20260506204229 63 112 0.0 1.7 0.00 0.00 0.00 61 1045.9
20260506203928 63 112 0.9 1.7 0.00 0.00 0.00 61 1049.1
20260506203729 63 135 1.7 1.7 0.00 0.00 0.00 61 1001.0
20260506203229 64 112 0.0 0.0 0.00 0.00 0.00 60 1010.4
20260506202729 64 135 0.0 1.7 0.00 0.00 0.00 60 1061.6
20260506202229 64 112 0.9 1.7 0.00 0.00 0.00 60 1055.4
20260506201729 64 90 0.0 1.7 0.00 0.00 0.00 59 1026.0
20260506201229 64 157 0.0 0.9 0.00 0.00 0.00 59 1095.8
20260506200729 65 112 0.0 0.9 0.00 0.00 0.00 59 1087.8
20260506200628 65 112 0.0 0.9 0.00 0.00 0.00 59 968.6
20260506200229 65 135 0.0 1.7 0.00 0.00 0.00 59 1025.9
20260506195729 65 112 0.0 0.9 0.00 0.00 0.00 58 1090.9
20260506195229 65 135 0.0 1.7 0.00 0.00 0.00 58 968.6
20260506194729 65 90 0.9 1.7 0.00 0.00 0.00 57 1052.2
20260506194230 65 112 1.7 1.7 0.00 0.00 0.00 57 968.6
20260506193729 66 135 0.0 0.0 0.00 0.00 0.00 56 956.0
20260506193328 66 112 0.0 0.0 0.00 0.00 0.00 56 1062.5
20260506193230 66 112 0.0 0.0 0.00 0.00 0.00 56 1052.1
20260506192729 66 112 0.0 0.0 0.00 0.00 0.00 55 1007.3
20260506192229 66 135 0.0 0.9 0.00 0.00 0.00 55 964.0
20260506191730 66 112 0.0 1.7 0.00 0.00 0.00 55 1102.0
20260506191229 66 90 1.7 1.7 0.00 0.00 0.00 54 1052.2
20260506190730 67 112 0.0 0.9 0.00 0.00 0.00 54 1042.8
20260506190230 67 112 0.0 0.0 0.00 0.00 0.00 53 968.6
20260506190029 67 135 0.0 0.0 0.00 0.00 0.00 53 1046.0
20260506185730 67 135 0.0 1.7 0.00 0.00 0.00 53 1046.0
20260506185231 68 135 1.7 1.7 0.00 0.00 0.00 52 1109.7
20260506184730 68 90 0.0 1.7 0.00 0.00 0.00 51 1007.3
20260506184230 68 112 1.7 1.7 0.00 0.00 0.00 51 1090.9
20260506183730 69 22 0.0 0.9 0.00 0.00 0.00 50 1042.8
20260506183230 69 337 0.0 1.7 0.00 0.00 0.00 50 1094.1
20260506182729 69 315 0.0 1.7 0.00 0.00 0.00 50 968.5
20260506182230 70 337 1.7 1.7 0.00 0.00 0.00 49 1087.8
20260506181730 70 315 0.0 1.7 0.00 0.00 0.00 48 965.4
20260506181230 71 292 0.0 1.7 0.00 0.00 0.00 48 1095.2
20260506180730 71 270 0.0 2.6 0.00 0.00 0.00 48 1097.2
20260506180230 72 315 2.6 4.3 0.00 0.00 0.00 47 1002.2
20260506175730 72 315 2.6 4.3 0.00 0.00 0.00 47 1013.1
20260506175429 73 315 3.5 4.3 0.00 0.00 0.00 47 997.8